Palacios, TX

12:18 PM CDT on September 21, 2017 (GMT -0500)
Palacios Municipal

Weather History for KPSX - June, 2013

Change the Weather History Date:

Wednesday, June 19, 2013

  Actual Average Record
Temperature  
Mean Temperature 86 °F -  
Max Temperature 91 °F 88 °F 95 °F (1959)
Min Temperature 82 °F 75 °F 67 °F (1945)
Cooling Degree Days 22    
Growing Degree Days 36 (Base 50)    
Moisture  
Dew Point 74 °F    
Average Humidity 69    
Maximum Humidity 77    
Minimum Humidity 52    
Precipitation  
Precipitation 0.00 in - - ()
Sea Level Pressure  
Sea Level Pressure 29.95 in    
Wind  
Wind Speed 12 mph (South)    
Max Wind Speed 15 mph    
Max Gust Speed 20 mph    
Visibility 10 miles    
Events      
Averages and records for this station are not official NWS values.
T = Trace of Precipitation, MM = Missing Value Source: NWS Daily Summary

Daily Weather History Graph

Daily Weather History Graph

Search for Another Location

Airport or City:

Trip Planner

Search our weather history database for the weather conditions in past years. The results will help you decide how hot, cold, wet, or windy it might be!

Date:

Astronomy

Jun. 19, 2013 Rise Set
Actual Time 6:27 AM CDT 8:25 PM CDT
Civil Twilight 6:00 AM CDT 8:52 PM CDT
Nautical Twilight 5:27 AM CDT 9:25 PM CDT
Astronomical Twilight 4:52 AM CDT 10:00 PM CDT
Moon 4:31 PM CDT (6/19) 2:57 AM CDT (6/19)
Length of Visible Light 14h 52m
Length of Day
13h 58m
Waxing Gibbous, 80% of the Moon is Illuminated
Jun 19
Waxing Gibbous
Jun 23
Full
Jun 29
Last Quarter
Jul 8
New
Jul 15
First Quarter

Hourly Weather History & Observations

Time (CDT) Temp. Heat Index Dew Point Humidity Pressure Visibility Wind Dir Wind Speed Gust Speed Precip Events Conditions
1:35 AM 84.2 °F 92.3 °F 75.2 °F 74% 29.94 in 10.0 mi South 12.7 mph - N/A   Mostly Cloudy
1:53 AM 82.9 °F 89.4 °F 73.9 °F 74% 29.94 in 10.0 mi South 15.0 mph - N/A   Mostly Cloudy
2:30 AM 82.4 °F 88.2 °F 73.4 °F 74% 29.93 in 10.0 mi South 12.7 mph - N/A   Scattered Clouds
2:43 AM 82.4 °F 88.2 °F 73.4 °F 74% 29.92 in 10.0 mi South 13.8 mph - N/A   Mostly Cloudy
2:53 AM 82.9 °F 89.4 °F 73.9 °F 74% 29.92 in 10.0 mi South 13.8 mph - N/A   Mostly Cloudy
3:41 AM 82.4 °F 88.2 °F 73.4 °F 74% 29.92 in 10.0 mi South 13.8 mph 19.6 mph N/A   Scattered Clouds
3:53 AM 82.9 °F 89.4 °F 73.9 °F 74% 29.92 in 10.0 mi South 11.5 mph - N/A   Scattered Clouds
4:09 AM 82.4 °F 88.2 °F 73.4 °F 74% 29.92 in 10.0 mi South 12.7 mph - N/A   Mostly Cloudy
4:18 AM 82.4 °F 88.2 °F 73.4 °F 74% 29.92 in 10.0 mi South 12.7 mph - N/A   Scattered Clouds
4:28 AM 82.4 °F 88.2 °F 73.4 °F 74% 29.92 in 10.0 mi South 10.4 mph - N/A   Mostly Cloudy
4:37 AM 82.4 °F 88.2 °F 73.4 °F 74% 29.92 in 10.0 mi South 11.5 mph 18.4 mph N/A   Scattered Clouds
4:53 AM 82.9 °F 89.4 °F 73.9 °F 74% 29.93 in 10.0 mi South 11.5 mph - N/A   Scattered Clouds
5:00 AM 82.4 °F 88.2 °F 73.4 °F 74% 29.93 in 10.0 mi South 12.7 mph - N/A   Mostly Cloudy
5:53 AM 82.9 °F 90.2 °F 75.0 °F 77% 29.94 in 10.0 mi SSW 12.7 mph - N/A   Mostly Cloudy
6:05 AM 82.4 °F 88.2 °F 73.4 °F 74% 29.94 in 10.0 mi SSW 10.4 mph - N/A   Scattered Clouds
6:53 AM 82.9 °F 90.2 °F 75.0 °F 77% 29.95 in 10.0 mi SSW 9.2 mph - N/A   Scattered Clouds
7:28 AM 84.2 °F 92.3 °F 75.2 °F 74% 29.96 in 10.0 mi SSW 10.4 mph - N/A   Mostly Cloudy
7:37 AM 84.2 °F 90.9 °F 73.4 °F 70% 29.96 in 10.0 mi SSW 11.5 mph - N/A   Scattered Clouds
7:53 AM 84.0 °F 91.2 °F 73.9 °F 72% 29.96 in 10.0 mi South 9.2 mph - N/A   Scattered Clouds
8:53 AM 84.9 °F 93.3 °F 75.0 °F 72% 29.98 in 10.0 mi SSW 10.4 mph - N/A   Partly Cloudy
9:53 AM 86.0 °F 93.8 °F 73.9 °F 67% 29.99 in 10.0 mi South 12.7 mph - N/A   Scattered Clouds
10:53 AM 88.0 °F 96.5 °F 73.9 °F 63% 29.98 in 10.0 mi South 10.4 mph - N/A   Clear
11:53 AM 89.1 °F 97.0 °F 73.0 °F 59% 29.99 in 10.0 mi South 9.2 mph - N/A   Clear
12:53 PM 89.1 °F 97.0 °F 73.0 °F 59% 29.98 in 10.0 mi SSW 11.5 mph - N/A   Clear
1:53 PM 89.1 °F 98.0 °F 73.9 °F 61% 29.97 in 10.0 mi SSW 11.5 mph 18.4 mph N/A   Clear
2:53 PM 90.0 °F 99.0 °F 73.9 °F 59% 29.96 in 10.0 mi South 12.7 mph - N/A   Clear
3:53 PM 90.0 °F 95.4 °F 70.0 °F 52% 29.95 in 10.0 mi South 11.5 mph - N/A   Clear
4:53 PM 91.0 °F 100.4 °F 73.9 °F 57% 29.95 in 10.0 mi South 10.4 mph - N/A   Clear
5:53 PM 90.0 °F 99.0 °F 73.9 °F 59% 29.94 in 10.0 mi SSE 12.7 mph - N/A   Clear
6:53 PM 88.0 °F 96.5 °F 73.9 °F 63% 29.95 in 10.0 mi SSE 11.5 mph - N/A   Partly Cloudy
7:53 PM 86.0 °F 93.8 °F 73.9 °F 67% 29.96 in 10.0 mi SSE 12.7 mph - N/A   Clear
8:53 PM 84.9 °F 92.1 °F 73.9 °F 69% 29.97 in 10.0 mi SSE 12.7 mph - N/A   Clear
9:53 PM 84.0 °F 91.2 °F 73.9 °F 72% 29.98 in 10.0 mi SSE 11.5 mph - N/A   Clear
10:53 PM 84.0 °F 91.2 °F 73.9 °F 72% 29.99 in 10.0 mi South 10.4 mph - N/A   Partly Cloudy
11:53 PM 84.0 °F 91.2 °F 73.9 °F 72% 29.99 in 10.0 mi South 12.7 mph - N/A   Partly Cloudy